sat.trackr.live / text

‹ back to catalog

STARLINK-35995

NORAD 66817 · 2025-278AC

PAYLOAD ACTIVE UNKNOWN

§ Identity

Operator
Country
US
Launch date
2025-12-01
Launch site
AFETR
Launch vehicle
Mass (kg)
RCS (m²)

Purposes: comms

External: N2YO · Heavens-Above · Gunter

§ Orbital elements

Epoch: 2026-09-20T05:42:37.955520Z

Period
94.27 min
Inclination
43.0008°
Eccentricity
0.0001299
Mean motion
15.27582565 rev/d
Perigee alt
482.2 km
Apogee alt
483.9 km
Semi-major
6,861.2 km
B*
2.6720e-4
RAAN
95.5789°
Arg perigee
276.1251°
Mean anomaly
83.9452°
Rev number
4,496

§ Raw data

STARLINK-359951 66817U 25278AC  26263.23793930  .00007098  00000+0  26720-3 0  99902 66817  43.0008  95.5789 0001299 276.1251  83.9452 15.27582565 44963

JSON: /api/v1/satellites/66817 · /tle

For live sub-satellite position, see the globe view (requires WebGL).

§ Visibility from observer

Set your observer location to see the next 7 days of passes ≥ 10°. The values pass through the URL so the page stays shareable.

No JS? Fill the form by hand. The geolocation button needs JavaScript.